Location: Newark
(51.0500°N, 12.4500°E)
Time: 21:58:03
(UTC+00:00)

Vanguard 1 - All Passes

Search period start: 18 February 2020 00:00
Search period end: 28 February 2020 00:00
Orbit: 650 x 3833 km, 34.2° (Epoch: 16 February)

Date Brightness Start Highest point End Pass type
(mag) Time Alt. Az. Time Alt. Az. Time Alt. Az.
18 Feb - 07:03:16 10° SSW 07:16:52 23° SSE 07:26:42 10° ESE daylight
18 Feb - 09:24:23 10° SW 09:38:37 33° S 09:47:24 10° ESE daylight
18 Feb - 11:48:54 10° WSW 11:59:04 28° SSW 12:05:31 10° SE daylight
19 Feb - 05:09:16 10° SSE 05:15:41 12° SE 05:21:27 10° ESE visible
19 Feb - 07:22:26 10° SSW 07:37:39 28° SSE 07:48:09 10° ESE daylight
19 Feb - 09:44:59 10° WSW 09:59:23 35° S 10:08:07 10° ESE daylight
19 Feb - 12:10:05 10° WSW 12:19:33 25° SSW 12:25:43 10° SSE daylight
20 Feb - 05:24:50 10° S 05:36:17 17° SE 05:45:46 10° ESE visible
20 Feb - 07:42:09 10° SW 07:58:28 32° SSE 08:09:18 10° ESE daylight
20 Feb - 10:05:46 10° WSW 10:20:06 35° S 10:28:44 10° SE daylight
20 Feb - 12:31:27 10° WSW 12:39:56 22° SSW 12:45:42 10° SSE daylight
21 Feb - 05:42:34 10° S 05:56:58 22° SSE 06:08:13 10° ESE visible
21 Feb - 08:02:15 10° SW 08:19:17 35° S 08:30:15 10° ESE daylight
21 Feb - 10:26:43 10° WSW 10:40:46 35° SSW 10:49:13 10° SE daylight
21 Feb - 12:53:05 10° WSW 13:00:11 18° SW 13:05:20 10° S daylight
22 Feb - 06:01:17 10° SSW 06:17:40 27° SSE 06:29:58 10° ESE daylight
22 Feb - 08:22:39 10° SW 08:40:06 38° S 08:51:05 10° ESE daylight
22 Feb - 10:47:49 10° WSW 11:01:21 33° SSW 11:09:36 10° SE daylight
22 Feb - 13:15:15 10° WSW 13:20:21 14° SW 13:24:23 10° SSW daylight
23 Feb - 04:06:20 10° SSE 04:16:12 15° SE 04:25:06 10° ESE visible
23 Feb - 06:20:36 10° SSW 06:38:25 32° SSE 06:51:20 10° ESE daylight
23 Feb - 08:43:18 10° WSW 09:00:54 40° S 09:11:48 10° ESE daylight
23 Feb - 11:09:03 10° WSW 11:21:51 31° SSW 11:29:50 10° SSE daylight
24 Feb - 04:22:56 10° S 04:36:40 20° SE 04:48:32 10° ESE visible
24 Feb - 06:40:24 10° SW 06:59:12 36° SSE 07:12:28 10° ESE daylight
24 Feb - 09:04:08 10° WSW 09:21:40 40° S 09:32:25 10° ESE daylight
24 Feb - 11:30:26 10° W 11:42:14 27° SSW 11:49:51 10° SSE daylight
25 Feb - 04:41:00 10° S 04:57:13 25° SE 05:10:47 10° E visible
25 Feb - 07:00:33 10° SW 07:20:01 39° SSE 07:33:25 10° ESE daylight
25 Feb - 09:25:08 10° WSW 09:42:22 40° SSW 09:52:55 10° SE daylight
25 Feb - 11:52:01 10° W 12:02:30 23° SW 12:09:36 10° S daylight
26 Feb - 02:51:19 10° SE 02:56:05 11° SE 03:00:44 10° ESE visible
26 Feb - 04:59:53 10° SSW 05:17:49 30° SSE 05:32:28 10° E visible
26 Feb - 07:20:59 10° SW 07:40:51 42° S 07:54:16 10° ESE daylight
26 Feb - 09:46:15 10° WSW 10:03:01 38° SSW 10:13:19 10° SE daylight
26 Feb - 12:13:57 10° W 12:22:38 19° SW 12:28:55 10° S daylight
27 Feb - 03:04:58 10° SSE 03:16:18 16° SE 03:27:04 10° ESE visible
27 Feb - 05:19:20 10° SSW 05:38:30 34° SSE 05:53:49 10° E visible
27 Feb - 07:41:39 10° WSW 08:01:41 44° S 08:15:00 10° ESE daylight
27 Feb - 10:07:30 10° W 10:23:33 35° SSW 10:33:34 10° SE daylight
27 Feb - 12:36:36 10° WSW 12:42:39 14° SW 12:47:28 10° SSW daylight
